Estación de Yerbas Buenas
Ultimos registro cada 15 minutos 37
| N° | Estación | Fecha / Hora | Temperatura | Humedad | Lluvia | Velocidad | Dirección | Radiación | Presion |
| 37 | Yerbas Buenas | 09-05-2026 09:00 | 6 | 84 | 0 | 0 | 257 | 173,1 | 1002,1 |
| 36 | Yerbas Buenas | 09-05-2026 08:45 | 6,3 | 85,3 | 0 | 0 | 244 | 28,1 | 1002,3 |
| 35 | Yerbas Buenas | 09-05-2026 08:30 | 5 | 89,9 | 0 | 0 | 281 | 141,9 | 1002,4 |
| 34 | Yerbas Buenas | 09-05-2026 08:15 | 4,3 | 93,2 | 0 | 0 | 268 | 91,9 | 1002,3 |
| 33 | Yerbas Buenas | 09-05-2026 08:00 | 3,4 | 93,6 | 0 | 0 | 275 | 19,4 | 1002,3 |
| 32 | Yerbas Buenas | 09-05-2026 07:45 | 2,8 | 93,4 | 0 | 0 | 279 | 8,1 | 1002,4 |
| 31 | Yerbas Buenas | 09-05-2026 07:30 | 2,8 | 93,4 | 0 | 0 | 279 | 1,9 | 1002,4 |
| 30 | Yerbas Buenas | 09-05-2026 07:15 | 2,4 | 93,2 | 0 | 0 | 279 | 0,6 | 1002,6 |
| 29 | Yerbas Buenas | 09-05-2026 07:00 | 2,5 | 93,2 | 0 | 0 | 279 | 0,6 | 1002,6 |
| 28 | Yerbas Buenas | 09-05-2026 06:45 | 3,1 | 93,3 | 0 | 0 | 279 | 0,6 | 1002,8 |
| 27 | Yerbas Buenas | 09-05-2026 06:30 | 3 | 93 | 0 | 0 | 279 | 0,6 | 1002,9 |
| 26 | Yerbas Buenas | 09-05-2026 06:15 | 3,9 | 93,1 | 0 | 0 | 279 | 0,6 | 1002,9 |
| 25 | Yerbas Buenas | 09-05-2026 06:00 | 4,4 | 93,1 | 0 | 0 | 281 | 0,6 | 1002,9 |
| 24 | Yerbas Buenas | 09-05-2026 05:45 | 5,1 | 93,1 | 0 | 0 | 264 | 0,6 | 1003 |
| 23 | Yerbas Buenas | 09-05-2026 05:30 | 5,4 | 93,1 | 0 | 0 | 257 | 0,6 | 1003,1 |
| 22 | Yerbas Buenas | 09-05-2026 05:15 | 5,7 | 93,1 | 0 | 0 | 257 | 0,6 | 1002,9 |
| 21 | Yerbas Buenas | 09-05-2026 05:00 | 5,7 | 93 | 0 | 0 | 272 | 0,6 | 1002,9 |
| 20 | Yerbas Buenas | 09-05-2026 04:45 | 5,2 | 92,7 | 0 | 0 | 272 | 0,6 | 1002,9 |
| 19 | Yerbas Buenas | 09-05-2026 04:30 | 4,7 | 92,1 | 0 | 0 | 272 | 0,6 | 1003 |
| 18 | Yerbas Buenas | 09-05-2026 04:15 | 5,3 | 92 | 0 | 0 | 272 | 0,6 | 1003 |
| 17 | Yerbas Buenas | 09-05-2026 04:00 | 5,7 | 91,7 | 0 | 0 | 275 | 0,6 | 1003,1 |
| 16 | Yerbas Buenas | 09-05-2026 03:45 | 6,4 | 91,3 | 0 | 0 | 275 | 0,6 | 1003,3 |
| 15 | Yerbas Buenas | 09-05-2026 03:30 | 6,9 | 91,1 | 0 | 0 | 253 | 0,6 | 1003,3 |
| 14 | Yerbas Buenas | 09-05-2026 03:15 | 7 | 90,6 | 0 | 0 | 257 | 0,6 | 1003,4 |
| 13 | Yerbas Buenas | 09-05-2026 03:00 | 7,7 | 89,7 | 0 | 0 | 264 | 0,6 | 1003,5 |
| 12 | Yerbas Buenas | 09-05-2026 02:45 | 8 | 89,4 | 0 | 0 | 251 | 0,6 | 1003,5 |
| 11 | Yerbas Buenas | 09-05-2026 02:30 | 8,3 | 89,2 | 0 | 0 | 274 | 0,6 | 1003,7 |
| 10 | Yerbas Buenas | 09-05-2026 02:15 | 8,4 | 88,9 | 0 | 0 | 264 | 0,6 | 1003,7 |
| 9 | Yerbas Buenas | 09-05-2026 02:00 | 8,6 | 89,4 | 0 | 0 | 248 | 0,6 | 1003,9 |
| 8 | Yerbas Buenas | 09-05-2026 01:45 | 8,8 | 89,3 | 0 | 0 | 246 | 0,6 | 1003,9 |
| 7 | Yerbas Buenas | 09-05-2026 01:30 | 8,8 | 89,1 | 0 | 0 | 260 | 0,6 | 1004 |
| 6 | Yerbas Buenas | 09-05-2026 01:15 | 8,9 | 89,7 | 0 | 0 | 256 | 0,6 | 1004,1 |
| 5 | Yerbas Buenas | 09-05-2026 01:00 | 8,9 | 90 | 0 | 0 | 248 | 0,6 | 1003,9 |
| 4 | Yerbas Buenas | 09-05-2026 00:45 | 8,7 | 90,2 | 0 | 0 | 258 | 0,6 | 1003,8 |
| 3 | Yerbas Buenas | 09-05-2026 00:30 | 9,1 | 89,5 | 0 | 0 | 257 | 0,6 | 1003,8 |
| 2 | Yerbas Buenas | 09-05-2026 00:15 | 9,3 | 89,7 | 0 | 0 | 267 | 0,6 | 1003,9 |
| 1 | Yerbas Buenas | 09-05-2026 00:00 | 9,4 | 89,9 | 0 | 0 | 261 | 0,6 | 1003,9 |